FW3266 Weather Reports


time (UTC)temp
C
wind
direction
speed
KPH
gust
KPH
rain 1hr
cm
rain 24hr
cm
rain mn
cm
humidity
%
barometer
mb
20260507192657 13 167 8.0 19.3 0.00 1.02 0.89 67 1006.6
20260507192153 13 203 6.4 14.5 0.00 1.02 0.89 69 1006.7
20260507191646 13 280 6.4 12.9 0.00 1.02 0.89 71 1006.8
20260507191141 13 212 3.2 16.1 0.00 1.02 0.89 71 1006.9
20260507190932 13 198 4.8 16.1 0.00 1.02 0.89 70 1006.8
20260507190136 13 185 9.7 17.7 0.00 1.02 0.89 69 1006.9
20260507185638 13 182 8.0 17.7 0.00 1.02 0.89 68 1007.1
20260507185133 13 211 6.4 16.1 0.00 1.02 0.89 69 1006.9
20260507184906 13 165 3.2 11.3 0.00 1.02 0.89 71 1007.2
20260507184126 13 164 4.8 12.9 0.00 1.02 0.89 72 1007.1
20260507183622 13 155 3.2 12.9 0.00 1.02 0.89 72 1007.1
20260507183107 13 113 3.2 11.3 0.00 1.02 0.89 73 1007.1
20260507182605 13 52 3.2 11.3 0.00 1.02 0.89 73 1007.0
20260507182104 13 203 4.8 12.9 0.00 1.02 0.89 73 1007.1
20260507181558 13 160 3.2 12.9 0.00 1.02 0.89 73 1007.1
20260507181051 13 151 6.4 11.3 0.00 1.02 0.89 74 1007.1
20260507180551 13 184 3.2 9.7 0.00 1.02 0.89 74 1007.2
20260507180045 12 139 3.2 11.3 0.00 1.02 0.89 74 1007.1
20260507175548 12 172 4.8 11.3 0.00 1.02 0.89 74 1007.0
20260507175318 13 169 3.2 9.7 0.00 1.02 0.89 72 1007.2
20260507175314 12 212 3.2 11.3 0.00 1.02 0.89 73 1007.1
20260507174032 13 110 6.4 9.7 0.00 1.02 0.89 71 1007.2
20260507173532 13 180 4.8 11.3 0.00 1.02 0.89 73 1007.1
20260507173019 13 182 3.2 12.9 0.00 1.02 0.89 72 1007.1
20260507172518 13 110 6.4 12.9 0.00 1.02 0.89 73 1007.3
20260507172013 13 158 3.2 8.0 0.00 1.02 0.89 72 1007.3
20260507171514 12 142 4.8 8.0 0.00 1.02 0.89 72 1007.5
20260507171009 12 137 3.2 8.0 0.00 1.02 0.89 72 1007.6
20260507170508 13 130 3.2 8.0 0.00 1.02 0.89 70 1007.6
20260507170005 13 126 3.2 6.4 0.00 1.02 0.89 69 1007.7
20260507165730 13 114 3.2 6.4 0.00 1.02 0.89 67 1007.7
20260507164946 13 126 3.2 8.0 0.00 1.02 0.89 66 1007.7
20260507164445 14 122 3.2 8.0 0.00 1.02 0.89 66 1007.7
20260507163940 14 148 3.2 8.0 0.00 1.02 0.89 70 1007.9
20260507163434 14 139 1.6 8.0 0.00 1.02 0.89 69 1007.9
20260507162932 14 110 4.8 8.0 0.00 1.02 0.89 67 1007.9
20260507162425 13 105 3.2 8.0 0.00 1.02 0.89 70 1007.9
20260507161930 13 84 3.2 8.0 0.00 1.02 0.89 71 1008.2
20260507161926 13 85 4.8 8.0 0.00 1.02 0.89 68 1008.0
20260507160912 13 101 3.2 11.3 0.00 1.02 0.89 69 1008.2
20260507160407 13 77 6.4 11.3 0.00 1.02 0.89 69 1008.2
20260507155900 13 51 3.2 9.7 0.00 1.02 0.89 69 1008.3
20260507155401 13 63 4.8 14.5 0.00 1.02 0.89 66 1008.5
20260507154857 13 76 9.7 19.3 0.00 1.02 0.89 66 1008.5
20260507154358 13 71 9.7 19.3 0.00 1.02 0.89 66 1008.4
20260507153851 14 83 9.7 16.1 0.00 1.02 0.89 65 1008.5
20260507153351 14 61 6.4 16.1 0.00 1.02 0.89 65 1008.5
20260507152847 14 55 8.0 14.5 0.00 1.02 0.89 62 1008.6
20260507152624 15 45 6.4 11.3 0.00 1.02 0.89 64 1008.6
20260507152119 15 68 3.2 16.1 0.00 1.02 0.89 64 1008.6
20260507151335 15 72 8.0 16.1 0.00 1.02 0.89 61 1008.8
20260507150829 15 74 9.7 16.1 0.00 1.02 0.89 62 1009.0
20260507150322 15 75 9.7 16.1 0.00 1.02 0.89 61 1008.9
20260507145818 15 29 8.0 16.1 0.00 1.02 0.89 63 1008.9
20260507145319 15 50 9.7 16.1 0.00 1.02 0.89 60 1008.8
20260507144827 15 359 9.7 14.5 0.00 1.02 0.89 60 1008.9
20260507144822 15 342 9.7 14.5 0.00 1.02 0.89 57 1008.8
20260507143809 15 343 4.8 16.1 0.00 1.02 0.89 60 1008.8
20260507143304 14 1 6.4 16.1 0.00 1.02 0.89 62 1008.9
20260507142756 14 37 4.8 19.3 0.00 1.02 0.89 66 1008.9
20260507142528 14 72 9.7 19.3 0.00 1.02 0.89 62 1009.1
20260507141747 14 33 8.0 17.7 0.00 1.02 0.89 63 1009.1
20260507141519 14 30 4.8 12.9 0.00 1.02 0.89 68 1009.2
20260507140740 13 359 8.0 17.7 0.00 1.02 0.89 66 1009.0
20260507140242 13 346 6.4 17.7 0.00 1.02 0.89 68 1009.0
20260507135737 13 41 8.0 16.1 0.00 1.02 0.89 68 1009.0
20260507135232 13 65 6.4 16.1 0.00 1.02 0.89 71 1009.1
20260507134723 13 357 6.4 17.7 0.00 1.02 0.89 73 1009.2
20260507134219 13 317 8.0 17.7 0.00 1.02 0.89 74 1009.1
20260507133946 12 326 6.4 16.1 0.00 1.02 0.89 77 1009.0
20260507133208 12 1 6.4 16.1 0.00 1.02 0.89 79 1009.0
20260507132703 12 41 4.8 16.1 0.00 1.02 0.89 81 1009.0
20260507132159 12 323 9.7 16.1 0.00 1.02 0.89 84 1009.2
20260507131928 11 302 6.4 16.1 0.00 1.02 0.89 87 1009.2
20260507131201 11 11 3.2 11.3 0.00 1.02 0.89 89 1009.1
20260507131157 11 37 6.4 12.9 0.00 1.02 0.89 88 1009.1
20260507130141 11 359 3.2 11.3 0.00 1.02 0.89 89 1009.2
20260507125635 11 353 4.8 9.7 0.00 1.02 0.89 90 1009.2
20260507125129 11 332 3.2 9.7 0.00 1.02 0.89 90 1009.3
20260507124637 10 317 3.2 9.7 0.00 1.02 0.89 90 1009.4
20260507124632 10 328 3.2 9.7 0.00 1.02 0.89 90 1009.2
20260507123619 10 312 3.2 9.7 0.03 1.02 0.89 90 1009.4
20260507123115 10 259 3.2 9.7 0.03 1.02 0.89 90 1009.5
20260507122606 10 294 3.2 8.0 0.05 1.02 0.89 90 1009.4
20260507122107 10 316 1.6 6.4 0.10 1.02 0.89 90 1009.1
20260507121837 10 316 1.6 6.4 0.13 1.02 0.89 90 1009.1
20260507121057 9 323 1.6 6.4 0.13 1.02 0.89 90 1008.9
20260507120553 9 342 3.2 6.4 0.13 1.02 0.89 90 1009.0
20260507120038 9 342 0.0 4.8 0.13 1.02 0.89 90 1009.1
20260507115540 9 342 0.0 3.2 0.13 1.02 0.89 90 1009.0
20260507115032 8 342 0.0 3.2 0.13 1.02 0.89 90 1009.0
20260507114529 9 342 1.6 4.8 0.13 1.02 0.89 89 1009.2
20260507114021 9 342 1.6 6.4 0.13 1.02 0.89 89 1009.1
20260507113537 9 346 3.2 6.4 0.10 0.97 0.84 89 1008.7
20260507113527 9 342 3.2 6.4 0.10 0.99 0.86 89 1008.6
20260507112505 9 345 1.6 6.4 0.08 0.94 0.81 89 1009.1
20260507111953 9 323 0.0 8.0 0.05 0.91 0.79 89 1009.0
20260507111726 9 311 3.2 9.7 0.05 0.89 0.76 89 1009.4
20260507110942 9 330 3.2 11.3 0.05 0.89 0.76 89 1009.1
20260507110436 9 7 6.4 11.3 0.08 0.89 0.76 89 1008.7
20260507105936 9 346 3.2 9.7 0.08 0.89 0.76 89 1008.6
20260507105433 9 8 1.6 8.0 0.08 0.89 0.76 89 1008.7
20260507104928 9 359 3.2 9.7 0.08 0.89 0.76 89 1008.8
20260507104421 9 3 3.2 9.7 0.08 0.89 0.76 89 1008.8
20260507103920 9 345 4.8 9.7 0.08 0.89 0.76 89 1009.1
20260507103416 9 357 4.8 12.9 0.10 0.89 0.76 89 1008.9
20260507102909 9 322 6.4 12.9 0.08 0.86 0.74 90 1009.3
20260507102404 9 0 4.8 11.3 0.08 0.86 0.74 90 1009.3
20260507101905 10 283 4.8 14.5 0.08 0.86 0.74 90 1008.8
20260507101400 10 36 6.4 17.7 0.05 0.84 0.71 90 1008.7
20260507100852 10 335 9.7 17.7 0.05 0.84 0.71 90 1008.6
20260507100626 10 333 3.2 11.3 0.05 0.81 0.69 91 1008.6
20260507095843 10 339 6.4 11.3 0.05 0.81 0.69 90 1008.7
20260507095340 10 335 1.6 9.7 0.05 0.81 0.69 90 1008.3
20260507095103 10 323 1.6 9.7 0.08 0.81 0.69 90 1008.3
20260507094607 11 314 3.2 9.7 0.08 0.81 0.69 91 1008.6
20260507093827 11 337 3.2 9.7 0.08 0.79 0.69 90 1008.4
20260507093328 11 330 4.8 9.7 0.10 0.79 0.66 90 1008.3
20260507092822 11 300 4.8 14.5 0.15 0.79 0.66 90 1008.5
20260507092547 11 325 4.8 14.5 0.23 0.79 0.66 90 1008.4
20260507091810 11 359 4.8 12.9 0.28 0.79 0.66 90 1008.3
20260507091313 11 47 6.4 12.9 0.30 0.79 0.66 90 1008.0
20260507090805 11 359 3.2 9.7 0.33 0.79 0.66 90 1007.9
20260507090300 11 321 3.2 11.3 0.33 0.76 0.64 90 1008.0
20260507085754 11 326 4.8 11.3 0.48 0.76 0.64 90 1008.0
20260507085256 11 314 4.8 11.3 0.56 0.76 0.64 89 1007.9
20260507084750 11 13 3.2 11.3 0.61 0.74 0.61 89 1008.0
20260507084250 11 49 3.2 6.4 0.61 0.74 0.61 89 1008.0
20260507083743 11 48 3.2 9.7 0.58 0.71 0.58 89 1007.8
20260507083237 11 359 3.2 14.5 0.56 0.69 0.56 89 1007.9
20260507082733 11 339 6.4 14.5 0.51 0.64 0.51 88 1008.0
20260507082226 11 359 4.8 12.9 0.43 0.56 0.43 88 1007.9
20260507081719 12 354 4.8 12.9 0.38 0.51 0.38 88 1008.1
20260507081216 12 1 6.4 11.3 0.36 0.48 0.36 88 1008.2
20260507080950 12 0 1.6 11.3 0.33 0.46 0.33 88 1007.8
20260507080209 12 18 3.2 12.9 0.30 0.43 0.30 88 1007.8
20260507075951 13 58 6.4 12.9 0.15 0.28 0.15 87 1007.9
20260507075158 13 297 6.4 16.1 0.05 0.18 0.08 87 1007.8
20260507074652 13 40 6.4 16.1 0.00 0.13 0.00 88 1007.4
20260507074146 13 40 4.8 12.9 0.00 0.13 0.00 89 1006.7
20260507073642 13 26 4.8 9.7 0.00 0.13 0.00 89 1006.6
20260507073410 13 29 1.6 8.0 0.00 0.13 0.00 90 1006.6
20260507072635 13 334 4.8 8.0 0.00 0.13 0.00 90 1006.7
20260507072129 13 350 1.6 8.0 0.00 0.13 0.00 90 1006.7
20260507071857 13 34 4.8 8.0 0.00 0.13 0.00 91 1006.6
20260507071125 13 50 3.2 6.4 0.00 0.13 0.00 91 1006.8
20260507070621 13 50 1.6 6.4 0.00 0.13 0.00 91 1006.8
20260507070114 13 51 1.6 9.7 0.00 0.13 0.00 91 1006.6
20260507065611 14 51 1.6 9.7 0.00 0.13 0.00 91 1006.4
20260507065104 14 248 0.0 4.8 0.00 0.13 0.00 91 1006.5
20260507064600 14 232 0.0 0.0 0.00 0.13 0.00 91 1006.6
20260507064100 14 232 0.0 0.0 0.00 0.13 0.00 91 1006.7
20260507063554 14 232 0.0 0.0 0.00 0.13 0.00 91 1006.7
20260507063318 14 232 0.0 0.0 0.00 0.13 0.00 91 1006.7
20260507062543 14 232 0.0 0.0 0.00 0.13 0.00 91 1006.8
20260507062044 14 232 0.0 3.2 0.00 0.13 0.00 91 1006.9
20260507061550 14 232 0.0 0.0 0.00 0.13 0.00 91 1007.0
20260507061543 14 232 0.0 3.2 0.00 0.13 0.00 91 1006.8
20260507060531 14 232 0.0 0.0 0.00 0.13 0.00 91 1007.1
20260507060027 14 232 0.0 0.0 0.00 0.13 0.00 91 1007.2
20260507055513 14 232 0.0 0.0 0.00 0.13 0.00 91 1006.9
20260507055009 14 232 0.0 6.4 0.00 0.13 0.00 91 1007.0
20260507054456 14 232 1.6 6.4 0.00 0.13 0.00 91 1007.0
20260507054223 14 230 3.2 6.4 0.00 0.13 0.00 91 1007.2
20260507053451 14 230 1.6 4.8 0.00 0.13 0.00 91 1007.2
20260507052938 14 230 3.2 4.8 0.00 0.13 0.00 91 1007.0
20260507052430 14 230 1.6 4.8 0.00 0.13 0.00 91 1007.1
20260507051925 14 225 3.2 6.4 0.00 0.13 0.00 91 1007.3
20260507051420 14 271 3.2 6.4 0.00 0.13 0.00 91 1007.4
20260507050915 14 274 3.2 6.4 0.00 0.13 0.00 91 1007.4
20260507050407 14 256 3.2 6.4 0.00 0.13 0.00 91 1007.4
20260507045909 14 244 3.2 8.0 0.00 0.13 0.00 91 1007.5
20260507045405 14 243 4.8 8.0 0.00 0.13 0.00 91 1007.3
20260507044859 14 245 3.2 8.0 0.00 0.13 0.00 91 1007.3
20260507044351 14 254 3.2 8.0 0.00 0.13 0.00 91 1007.3
20260507044126 14 271 3.2 8.0 0.00 0.13 0.00 91 1007.2
20260507043346 14 316 4.8 8.0 0.00 0.13 0.00 91 1007.2
20260507043113 14 259 3.2 6.4 0.00 0.13 0.00 91 1007.2
20260507042343 14 256 3.2 11.3 0.00 0.13 0.00 91 1007.2
20260507041837 14 260 3.2 11.3 0.00 0.13 0.00 91 1007.2
20260507041338 14 241 3.2 9.7 0.00 0.13 0.00 91 1007.2
20260507040833 14 241 4.8 9.7 0.00 0.13 0.00 91 1007.2
20260507040324 14 238 4.8 9.7 0.00 0.13 0.00 91 1007.2
20260507035819 14 250 4.8 9.7 0.00 0.13 0.13 91 1007.4
20260507035322 14 233 4.8 12.9 0.00 0.13 0.13 91 1007.6
20260507035318 14 246 4.8 12.9 0.00 0.13 0.13 91 1007.5
20260507034316 13 255 4.8 11.3 0.00 0.13 0.13 91 1007.5
20260507034310 14 240 6.4 9.7 0.00 0.13 0.13 91 1007.6
20260507033302 13 262 6.4 11.3 0.00 0.13 0.13 91 1007.3
20260507032801 13 248 6.4 11.3 0.00 0.13 0.13 91 1007.4
20260507032259 13 280 4.8 11.3 0.00 0.13 0.13 91 1007.5
20260507031754 13 234 4.8 11.3 0.00 0.13 0.13 91 1007.3
20260507031255 13 243 6.4 11.3 0.00 0.13 0.13 91 1007.2
20260507030749 13 244 4.8 11.3 0.00 0.13 0.13 91 1007.2
20260507030248 13 253 6.4 14.5 0.00 0.13 0.13 91 1007.3
20260507025745 13 197 6.4 14.5 0.00 0.13 0.13 91 1007.2
20260507025243 13 230 6.4 9.7 0.00 0.13 0.13 91 1007.2
20260507024739 13 245 4.8 9.7 0.00 0.13 0.13 91 1007.1
20260507024233 13 255 4.8 9.7 0.00 0.13 0.13 91 1007.1
20260507023727 13 212 4.8 16.1 0.00 0.13 0.13 91 1007.0
20260507023222 13 252 6.4 16.1 0.00 0.13 0.13 91 1007.2
20260507022723 13 240 6.4 11.3 0.00 0.13 0.13 91 1007.0
20260507022217 13 279 4.8 11.3 0.00 0.13 0.13 91 1007.1
20260507021716 13 250 4.8 12.9 0.00 0.13 0.13 91 1007.2
20260507021213 13 240 4.8 12.9 0.00 0.13 0.13 91 1007.3
20260507020701 13 226 4.8 12.9 0.00 0.13 0.13 91 1007.4
20260507020201 14 249 4.8 12.9 0.00 0.13 0.13 91 1007.6
20260507015655 13 245 4.8 12.9 0.00 0.13 0.13 91 1007.7
20260507015148 14 178 6.4 14.5 0.00 0.13 0.13 91 1007.7
20260507014646 14 241 6.4 16.1 0.00 0.13 0.13 91 1007.7
20260507014137 14 236 6.4 16.1 0.00 0.13 0.13 91 1007.6
20260507013914 14 238 6.4 12.9 0.03 0.13 0.13 91 1007.7
20260507013126 14 298 8.0 12.9 0.03 0.13 0.13 91 1007.8
20260507012621 14 187 4.8 12.9 0.03 0.13 0.13 91 1007.9
20260507012116 14 240 4.8 12.9 0.03 0.13 0.13 91 1007.9
20260507011615 14 226 6.4 14.5 0.03 0.13 0.13 91 1007.9
20260507011112 14 253 8.0 14.5 0.03 0.13 0.13 91 1007.7
20260507010607 14 261 8.0 14.5 0.05 0.13 0.13 90 1007.7
20260507010105 14 274 6.4 14.5 0.05 0.13 0.13 90 1007.7
20260507005601 14 238 6.4 12.9 0.05 0.13 0.13 90 1007.8
20260507005055 14 239 6.4 11.3 0.05 0.13 0.13 91 1007.7
20260507004556 14 248 8.0 16.1 0.05 0.13 0.13 91 1007.8
20260507004052 14 250 9.7 17.7 0.05 0.13 0.13 91 1007.8
20260507003544 14 233 8.0 17.7 0.03 0.10 0.10 90 1007.8
20260507003037 14 270 8.0 16.1 0.03 0.10 0.10 90 1007.9
20260507002535 14 256 8.0 16.1 0.03 0.10 0.10 90 1007.8
20260507002028 14 245 6.4 16.1 0.05 0.10 0.10 90 1007.8
20260507001520 14 236 8.0 16.1 0.05 0.10 0.10 90 1007.7
20260507001018 14 262 9.7 25.7 0.08 0.10 0.10 90 1007.7
20260507000510 14 239 8.0 25.7 0.05 0.08 0.08 90 1007.7
20260507000004 14 249 8.0 22.5 0.05 0.08 0.08 90 1007.8
20260506235731 14 198 8.0 20.9 0.05 0.08 0.08 90 1007.6
20260506235000 14 197 9.7 20.9 0.05 0.08 0.08 90 1007.8
20260506234731 14 198 9.7 20.9 0.05 0.08 0.08 90 1007.7
20260506234227 14 203 4.8 17.7 0.08 0.08 0.08 89 1007.9
20260506233448 14 236 6.4 17.7 0.08 0.08 0.08 89 1008.0
20260506232944 15 248 6.4 17.7 0.08 0.08 0.08 89 1008.0
20260506232436 15 238 6.4 12.9 0.08 0.08 0.08 89 1008.0
20260506231933 15 245 8.0 17.7 0.05 0.05 0.05 89 1008.0
20260506231426 15 218 6.4 16.1 0.05 0.05 0.05 89 1008.0
20260506230920 15 218 4.8 16.1 0.03 0.03 0.03 89 1008.0
20260506230416 15 231 6.4 16.1 0.03 0.03 0.03 88 1008.0
20260506225916 15 238 6.4 16.1 0.03 0.03 0.03 88 1007.9
20260506225409 15 250 8.0 14.5 0.03 0.03 0.03 88 1008.0
20260506224909 15 219 9.7 14.5 0.03 0.03 0.03 87 1008.0
20260506224405 15 241 8.0 14.5 0.03 0.03 0.03 87 1008.2
20260506223908 15 193 4.8 20.9 0.00 0.00 0.00 87 1008.5
20260506223359 15 198 9.7 20.9 0.00 0.00 0.00 86 1008.3
20260506222855 15 220 6.4 14.5 0.00 0.00 0.00 86 1008.4
20260506222627 15 231 8.0 17.7 0.00 0.00 0.00 86 1008.4
20260506221844 15 253 8.0 17.7 0.00 0.00 0.00 85 1008.5
20260506221336 15 264 9.7 14.5 0.00 0.00 0.00 85 1008.5
20260506221110 16 248 8.0 14.5 0.00 0.00 0.00 85 1008.5
20260506220606 16 248 9.7 14.5 0.00 0.00 0.00 85 1008.5
20260506215826 16 197 8.0 14.5 0.00 0.00 0.00 85 1008.5
20260506215326 16 261 6.4 20.9 0.00 0.00 0.00 85 1008.6
20260506214824 16 245 8.0 20.9 0.00 0.00 0.00 84 1008.5
20260506214316 16 237 8.0 22.5 0.00 0.00 0.00 84 1008.5
20260506213812 16 255 9.7 22.5 0.00 0.00 0.00 83 1008.5
20260506213304 16 221 11.3 22.5 0.00 0.00 0.00 83 1008.5
20260506212800 16 168 11.3 22.5 0.00 0.00 0.00 83 1008.5
20260506212253 16 169 9.7 16.1 0.00 0.00 0.00 83 1008.8
20260506211750 16 252 9.7 20.9 0.00 0.00 0.00 83 1008.8
20260506211242 16 259 8.0 20.9 0.00 0.00 0.00 83 1008.7
20260506211005 16 172 9.7 17.7 0.00 0.00 0.00 83 1008.8
20260506210746 16 172 9.7 17.7 0.00 0.00 0.00 83 1008.8
20260506210237 16 214 9.7 19.3 0.00 0.00 0.00 84 1008.7
20260506210015 16 204 11.3 19.3 0.00 0.00 0.00 84 1008.8
20260506205233 16 259 9.7 17.7 0.00 0.00 0.00 83 1009.0
20260506204728 16 206 9.7 20.9 0.00 0.00 0.00 84 1008.9
20260506204223 16 212 9.7 24.1 0.00 0.00 0.00 84 1008.9
20260506203955 16 271 9.7 25.7 0.00 0.00 0.00 84 1009.0
20260506203218 16 252 9.7 25.7 0.00 0.00 0.00 84 1009.0
20260506202718 16 224 9.7 25.7 0.00 0.00 0.00 84 1009.1
20260506202237 16 177 6.4 14.5 0.00 0.00 0.00 83 1009.1
20260506202229 16 169 8.0 25.7 0.00 0.00 0.00 83 1009.0
20260506201201 16 246 8.0 16.1 0.00 0.00 0.00 81 1009.2
20260506200700 16 242 9.7 19.3 0.00 0.00 0.00 80 1009.3
20260506200153 17 230 11.3 19.3 0.00 0.00 0.00 79 1009.3
20260506195650 17 242 11.3 19.3 0.00 0.00 0.00 77 1009.3
20260506195142 17 237 8.0 29.0 0.00 0.00 0.00 76 1009.4
20260506194638 17 247 11.3 29.0 0.00 0.00 0.00 75 1009.4
20260506194131 18 259 12.9 24.1 0.00 0.00 0.00 75 1009.4
20260506193626 18 252 9.7 25.7 0.00 0.00 0.00 75 1009.4
20260506193120 18 232 11.3 35.4 0.00 0.00 0.00 75 1009.5